[[{"header":{"parameterUnit":"m.s-1","parameterCategory":1,"la1":30.2991,"la2":30.254,"lo1":-89.0895,"lo2":-89.0444,"dy":0.0017,"dx":0.0017,"nx":28,"ny":28,"refTime":"2024-02-25T03:00:00:Z","depth":0,"parameterNumber":2,"parameterNumberName":"U-component_of_WINDS"},"data":[0,0,0,0,0,0,0,0,0,0,0,0,0,0,0,0,0,0,0,0,0,0,0,0,0,0,0,0,0,0,0,0,0,0,0,0,0,0,0,0,0,0,0,0,0,0,0,0,0,0,0,0,0,0,0,0,0,0,-2.1788,-2.1788,0,-2.1795,-2.1795,-2.1795,-2.1767,-2.1766,-2.1765,-2.1764,-2.1773,-2.1774,-2.1775,0,0,0,0,0,0,0,0,0,0,0,0,0,-2.1752,-2.1753,-2.1788,-2.1788,-2.1788,-2.1795,-2.1795,-2.1795,-2.1767,-2.1766,-2.1765,-2.1764,-2.1772,-2.1773,-2.1775,0,0,0,0,0,0,0,0,0,0,0,0,0,-2.1764,-2.1753,-2.1788,-2.1775,-2.1773,-2.1795,-2.1795,-2.1795,-2.1767,-2.1766,-2.1765,-2.1763,-2.1772,-2.1773,-2.1775,-2.181,0,0,-2.1779,-2.178,0,0,0,0,0,0,0,0,-2.1764,-2.1766,-2.1776,-2.1776,-2.1774,-2.1779,-2.1786,-2.18,-2.1767,-2.177,-2.1764,-2.1763,-2.1776,-2.1777,-2.1781,-2.181,-2.181,-2.178,-2.1781,-2.1781,-2.1782,0,0,0,0,0,0,0,-2.1763,-2.1765,-2.1791,-2.1777,-2.1775,-2.1769,-2.177,-2.1788,-2.178,-2.1769,-2.1767,-2.1768,-2.1775,-2.178,-2.1781,-2.1811,-2.178,-2.1781,-2.1782,-2.1782,-2.1871,-2.1873,0,0,0,0,0,0,-2.1764,-2.1765,-2.179,-2.1791,-2.1766,-2.1771,-2.1771,-2.1779,-2.1779,-2.1778,-2.177,-2.1767,-2.1778,-2.1779,-2.1781,-2.1822,-2.1781,-2.1783,-2.1783,-2.187,-2.1872,-2.1873,0,0,0,0,0,0,-2.1763,-2.1766,-2.179,-2.1777,-2.178,-2.1773,-2.1781,-2.1779,-2.1784,-2.178,-2.1778,-2.1776,-2.1777,-2.1779,-2.1803,-2.1822,-2.1783,-2.1785,-2.1868,-2.187,-2.1872,-2.1905,0,0,0,0,0,0,-2.1762,-2.1766,-2.1778,-2.1778,-2.1781,-2.1811,-2.1783,-2.1781,-2.1787,-2.1783,-2.1785,-2.1784,-2.1776,-2.1801,-2.1805,-2.1824,-2.1786,-2.1866,-2.1869,-2.1872,-2.1902,-2.1908,-2.1913,0,0,0,0,0,-2.1761,-2.1787,-2.1779,-2.1782,-2.1795,-2.1812,-2.1814,-2.1804,-2.1788,-2.1801,-2.1799,-2.1784,-2.1821,-2.1804,-2.1808,-2.1827,-2.1865,-2.1868,-2.1871,-2.19,-2.1907,-2.1913,0,0,0,0,0,0,-2.1788,-2.1786,-2.1777,-2.1804,-2.1809,-2.1807,-2.1822,-2.1811,-2.182,-2.1817,-2.1805,-2.1806,-2.1832,-2.1833,-2.1814,-2.1863,-2.184,-2.1844,-2.186,-2.1867,-2.1873,-2.1871,-2.1787,0,0,0,0,0,-2.1798,-2.1811,-2.1809,-2.1832,-2.1835,-2.1829,-2.1836,-2.1828,-2.1832,-2.1834,-2.1833,-2.1839,-2.1852,-2.186,-2.1871,-2.1904,-2.1904,-2.192,-2.1925,-2.193,-2.1933,-2.1951,-2.1958,-2.1884,-2.1884,-2.1884,0,0,-2.1817,-2.1817,-2.1826,-2.1838,-2.184,-2.1855,-2.183,-2.1846,-2.1857,-2.1836,-2.1859,-2.186,-2.1865,-2.1894,-2.1906,-2.1895,-2.1954,-2.1934,-2.1937,-2.1938,-2.1955,-2.1962,-2.1968,-2.1886,-2.1886,-2.1885,0,0,-2.1858,-2.186,-2.188,-2.1884,-2.1889,-2.1885,-2.1891,-2.1892,-2.1892,-2.1914,-2.19,-2.1914,-2.1936,-2.1941,-2.1946,-2.1995,-2.1981,-2.1999,-2.2026,-2.2045,-2.2051,-2.2056,-2.2073,-2.2079,-2.2003,-2.2003,-2.2003,0,-2.188,-2.1901,-2.1892,-2.191,-2.1916,-2.19,-2.1921,-2.1925,-2.1934,-2.1939,-2.1927,-2.1956,-2.1958,-2.1989,-2.2001,-2.2006,-2.2012,-2.1997,-2.205,-2.2056,-2.206,-2.2076,-2.2083,-2.2005,-2.2005,-2.2004,-2.2004,0,-2.1929,-2.1944,-2.196,-2.1969,-2.1978,-2.1997,-2.1992,-2.2003,-2.1996,-2.1994,-2.2019,-2.2023,-2.2035,-2.2043,-2.2035,-2.2073,-2.2066,-2.2052,-2.2029,-2.2069,-2.2084,-2.209,-2.2008,-2.2007,-2.2006,-2.2006,0,0,-2.1983,-2.199,-2.1996,-2.2001,-2.2007,-2.2019,-2.204,-2.2052,-2.2062,-2.207,-2.2087,-2.2108,-2.2097,-2.2103,-2.2097,-2.2114,-2.2152,-2.2098,-2.2098,-2.2107,-2.2194,-2.2203,-2.221,-2.2146,-2.2147,-2.2148,-2.2194,0,-2.2023,-2.2056,-2.2051,-2.2083,-2.2098,-2.2085,-2.2103,-2.211,-2.211,-2.2124,-2.2125,-2.214,-2.2124,-2.2128,-2.2144,-2.2144,-2.2169,-2.2141,-2.2161,-2.2162,-2.2157,-2.2218,-2.2226,-2.2269,-2.2199,-2.22,-2.2201,0,-2.2072,-2.2083,-2.2117,-2.2124,-2.213,-2.2146,-2.2159,-2.2172,-2.218,-2.218,-2.2189,-2.2181,-2.2203,-2.2183,-2.2213,-2.2194,-2.2203,-2.2205,-2.2207,-2.2206,-2.2182,-2.2217,-2.2282,-2.2288,-2.221,-2.221,-2.2209,0,-2.2108,-2.2131,-2.2155,-2.216,-2.2168,-2.218,-2.2184,-2.2192,-2.2201,-2.2213,-2.2219,-2.2234,-2.2241,-2.2254,-2.2251,-2.2236,-2.2283,-2.2261,-2.2283,-2.2283,-2.229,-2.2289,-2.2356,-2.23,-2.23,-2.23,-2.2299,0,-2.2151,-2.2172,-2.2171,-2.2185,-2.221,-2.2205,-2.223,-2.2233,-2.2241,-2.2256,-2.2248,-2.2263,-2.2259,-2.2275,-2.2274,-2.23,-2.2304,-2.2304,-2.2303,-2.2304,-2.2304,-2.2307,-2.2303,-2.2301,-2.2301,-2.2301,-2.23,0,-2.2192,-2.2192,-2.2217,-2.2225,-2.2227,-2.2245,-2.2252,-2.2266,-2.2268,-2.2288,-2.2293,-2.2295,-2.2314,-2.2314,-2.2335,-2.2334,-2.2366,-2.2362,-2.2362,-2.2361,-2.2382,-2.2379,-2.2451,-2.246,-2.24,-2.24,-2.2401,0,-2.2219,-2.2235,-2.2245,-2.2255,-2.226,-2.2277,-2.2286,-2.2284,-2.2295,-2.2309,-2.2322,-2.234,-2.2354,-2.2385,-2.2389,-2.2406,-2.2401,-2.2426,-2.2404,-2.2404,-2.2401,-2.2399,-2.2401,-2.2429,-2.243,-2.243,-2.2431,0,-2.2265,-2.2266,-2.228,-2.2295,-2.2307,-2.2319,-2.233,-2.2339,-2.2339,-2.2352,-2.2371,-2.2382,-2.2405,-2.2423,-2.244,-2.2446,-2.2439,-2.2438,-2.2444,-2.2443,-2.2442,-2.2442,-2.2372,-2.2436,-2.2435,-2.2435,-2.2435,-2.2434,-2.2299,-2.2314,-2.2323,-2.234,-2.2349,-2.2361,-2.2375,-2.238,-2.2395,-2.2413,-2.2412,-2.2434,-2.2446,-2.2468,-2.2476,-2.2494,-2.2485,-2.2493,-2.2495,-2.2497,-2.2499,-2.2442,-2.2497,-2.2497,-2.2497,-2.2497,-2.2497,0,-2.2344,-2.2351,-2.2367,-2.2383,-2.2398,-2.2391,-2.2404,-2.2416,-2.2435,-2.2447,-2.2462,-2.2486,-2.2504,-2.2512,-2.2531,-2.2544,-2.2541,-2.2549,-2.2546,-2.2548,-2.2505,-2.2498,-2.2551,-2.2551,-2.2551,-2.2551,-2.2551,-2.2551,-2.2369,-2.2394,-2.2396,-2.2426,-2.2433,-2.2454,-2.2462,-2.2473,-2.2483,-2.2509,-2.2525,-2.253,-2.2541,-2.2561,-2.2579,-2.2581,-2.2588,-2.2596,-2.2597,-2.2556,-2.2551,-2.2545,-2.2538,-2.2598,-2.2598,-2.2638,-2.2638,-2.2638]},{"header":{"parameterUnit":"m.s-1","parameterCategory":1,"la1":30.2991,"la2":30.254,"lo1":-89.0895,"lo2":-89.0444,"dy":0.0017,"dx":0.0017,"nx":28,"ny":28,"refTime":"2024-02-25T03:00:00:Z","depth":0,"parameterNumber":3,"parameterNumberName":"V-component_of_WINDS"},"data":[0,0,0,0,0,0,0,0,0,0,0,0,0,0,0,0,0,0,0,0,0,0,0,0,0,0,0,0,0,0,0,0,0,0,0,0,0,0,0,0,0,0,0,0,0,0,0,0,0,0,0,0,0,0,0,0,0,0,2.6976,2.6976,0,2.6967,2.6967,2.6967,2.7018,2.7019,2.7021,2.7022,2.7006,2.7004,2.7002,0,0,0,0,0,0,0,0,0,0,0,0,0,2.7033,2.7031,2.6976,2.6976,2.6976,2.6967,2.6967,2.6967,2.7018,2.7019,2.7021,2.7023,2.7007,2.7004,2.7002,0,0,0,0,0,0,0,0,0,0,0,0,0,2.7014,2.7031,2.6976,2.7,2.7002,2.6967,2.6967,2.6967,2.7017,2.7019,2.7022,2.7024,2.7007,2.7005,2.7002,2.6941,0,0,2.6994,2.6993,0,0,0,0,0,0,0,0,2.7015,2.7012,2.6997,2.6999,2.7001,2.6996,2.6981,2.6958,2.7017,2.7011,2.7022,2.7025,2.7,2.6998,2.6992,2.694,2.694,2.6993,2.6992,2.6991,2.699,0,0,0,0,0,0,0,2.7016,2.7013,2.6973,2.6997,2.6999,2.701,2.701,2.6977,2.6993,2.7012,2.7016,2.7014,2.7002,2.6994,2.6992,2.694,2.6994,2.6991,2.6989,2.6988,2.6841,2.6839,0,0,0,0,0,0,2.7015,2.7013,2.6973,2.6972,2.7014,2.7007,2.7007,2.6995,2.6994,2.6996,2.7012,2.7017,2.6998,2.6995,2.6991,2.6922,2.6991,2.6988,2.6987,2.6843,2.684,2.6838,0,0,0,0,0,0,2.7016,2.7011,2.6973,2.6994,2.699,2.7004,2.699,2.6994,2.6986,2.6994,2.6997,2.7002,2.6999,2.6995,2.6954,2.6922,2.6987,2.6984,2.6846,2.6842,2.6839,2.678,0,0,0,0,0,0,2.7018,2.7011,2.6989,2.6993,2.6989,2.6937,2.6988,2.6992,2.6982,2.6988,2.6985,2.6987,2.7001,2.6958,2.6952,2.6919,2.6982,2.6849,2.6844,2.684,2.6785,2.6775,2.6767,0,0,0,0,0,2.7019,2.6971,2.6987,2.6982,2.6962,2.6935,2.6933,2.6952,2.698,2.6957,2.6963,2.6987,2.6927,2.6954,2.6947,2.6913,2.6851,2.6845,2.684,2.6789,2.6777,2.6767,0,0,0,0,0,0,2.6959,2.6971,2.699,2.6942,2.6938,2.6944,2.6916,2.6938,2.6924,2.6929,2.6952,2.6951,2.6906,2.6905,2.6935,2.6855,2.6893,2.6887,2.6857,2.6845,2.6836,2.6837,2.698,0,0,0,0,0,2.694,2.692,2.6931,2.6887,2.6885,2.6901,2.689,2.6906,2.6901,2.6899,2.6901,2.6894,2.6874,2.686,2.6842,2.6786,2.6787,2.676,2.6751,2.6743,2.6736,2.6709,2.6697,2.6821,2.6821,2.6821,0,0,2.69,2.6905,2.689,2.6875,2.6874,2.6851,2.6898,2.6871,2.6855,2.6894,2.6856,2.6858,2.6852,2.6805,2.6783,2.6802,2.6703,2.6736,2.673,2.6728,2.6702,2.669,2.668,2.6817,2.6818,2.6818,0,0,2.6817,2.6818,2.6783,2.6782,2.678,2.6792,2.6784,2.6788,2.6791,2.6755,2.6785,2.6764,2.6729,2.6724,2.6717,2.6636,2.6657,2.6629,2.658,2.6553,2.6543,2.6534,2.6506,2.6495,2.6623,2.6623,2.6622,0,2.6767,2.6735,2.6761,2.6733,2.6726,2.6765,2.6729,2.6726,2.6717,2.6711,2.6733,2.6692,2.669,2.6643,2.6623,2.6616,2.6607,2.6628,2.6543,2.6534,2.6527,2.65,2.6489,2.6619,2.6619,2.662,2.662,0,2.6674,2.6652,2.6624,2.6618,2.6608,2.6576,2.6596,2.6583,2.66,2.6609,2.6573,2.6573,2.6557,2.6547,2.6562,2.6502,2.6514,2.6539,2.6578,2.6511,2.6486,2.6476,2.6614,2.6615,2.6616,2.6617,0,0,2.6548,2.6561,2.655,2.6549,2.6553,2.6535,2.6506,2.6493,2.6481,2.6475,2.645,2.6421,2.6446,2.6438,2.6453,2.643,2.6367,2.6458,2.6458,2.6441,2.6301,2.6282,2.6269,2.6382,2.6381,2.6379,2.6302,0,2.6467,2.6419,2.6443,2.6391,2.6372,2.641,2.6384,2.6383,2.6392,2.6375,2.6384,2.6364,2.6397,2.6393,2.6372,2.6379,2.6339,2.6385,2.6358,2.6357,2.6358,2.6256,2.6235,2.6162,2.6292,2.6291,2.6289,0,2.6364,2.6358,2.6305,2.6315,2.6308,2.6284,2.6276,2.626,2.626,2.6268,2.6261,2.6283,2.6254,2.6295,2.6255,2.6286,2.6277,2.6279,2.6277,2.6274,2.6318,2.625,2.6139,2.6128,2.6274,2.6275,2.6276,0,2.6278,2.6256,2.6222,2.622,2.623,2.6214,2.6217,2.6219,2.6211,2.6203,2.6198,2.6186,2.6178,2.6168,2.6187,2.6214,2.6145,2.6186,2.615,2.6149,2.6132,2.6132,2.6017,2.6127,2.6127,2.6128,2.6128,0,2.6184,2.615,2.6184,2.6163,2.6127,2.6155,2.6118,2.6125,2.6128,2.6108,2.614,2.6121,2.6147,2.613,2.6144,2.611,2.6106,2.6111,2.6115,2.6108,2.6107,2.6101,2.6106,2.6125,2.6125,2.6126,2.6126,0,2.608,2.6102,2.6068,2.6082,2.6085,2.6058,2.6069,2.605,2.6063,2.6038,2.6034,2.6052,2.6035,2.6053,2.6035,2.6045,2.5999,2.6011,2.6,2.6003,2.5966,2.5969,2.5841,2.5826,2.5947,2.5946,2.5945,0,2.6018,2.5994,2.6007,2.5998,2.6,2.5984,2.5977,2.6004,2.5995,2.5996,2.5976,2.5962,2.5952,2.5922,2.5933,2.592,2.5931,2.5888,2.5929,2.5924,2.5931,2.5932,2.593,2.5879,2.5877,2.5876,2.5875,0,2.5905,2.5919,2.5908,2.5902,2.5894,2.589,2.5888,2.5878,2.5907,2.5895,2.5879,2.5872,2.5856,2.5841,2.5833,2.5835,2.5859,2.5863,2.5854,2.5845,2.584,2.5842,2.5976,2.5865,2.5866,2.5866,2.5867,2.5867,2.5821,2.5802,2.5809,2.5797,2.58,2.5798,2.5782,2.5794,2.5782,2.5773,2.579,2.577,2.5773,2.5765,2.5764,2.5748,2.5767,2.5753,2.575,2.5746,2.574,2.5844,2.5747,2.5747,2.5747,2.5748,2.5748,0,2.571,2.5718,2.5707,2.5705,2.5696,2.5724,2.5724,2.5714,2.5697,2.5699,2.569,2.5672,2.5659,2.5671,2.566,2.5645,2.5656,2.5641,2.5642,2.5642,2.5724,2.5734,2.5633,2.5633,2.5633,2.5633,2.5633,2.5633,2.5651,2.5621,2.5636,2.5607,2.5615,2.5598,2.5596,2.5595,2.5597,2.5577,2.5567,2.5576,2.5582,2.5573,2.5562,2.5566,2.556,2.5541,2.5549,2.5625,2.5636,2.5647,2.5655,2.554,2.554,2.5468,2.5467,2.5467]}]]